Regional Weather Roundup
Issued by NWS

Home | Current Version | Previous Version | Text Only | Print | Product List | Glossary On
Versions: 1 2 3 4 5 6 7 8 9 10 11 12 13 14 15 16 17 18 19 20 21 22 23 24 25 26 27 28 29 30 31 32 33 34 35 36 37 38 39 40 41 42 43 44 45 46 47 48 49 50
000
ASUS44 KEWX 281403
RWRTX
SOUTH TEXAS REGIONAL WEATHER ROUNDUP
NATIONAL WEATHER SERVICE AUSTIN/SAN ANTONIO TX
800 AM CST TUE FEB 28 2017

NOTE: "FAIR" INDICATED FEW OR NO CLOUDS BELOW 12,000 FEET WITH NO
SIGNIFICANT WEATHER AND/OR OBSTRUCTIONS TO VISIBILITY.

* - THESE STATIONS ARE NOT NWS OR FAA STATIONS...AND ARE NOT SUBJECT
    TO NWS AND FAA QUALITY CONTROL.

TXZ171-172-183>190-281500-
TEXAS HILL COUNTRY AND EDWARDS PLATEAU

CITY           SKY/WX    TMP DP  RH WIND       PRES   REMARKS
JUNCTION       CLOUDY    67  62  84 W8        29.95R
*LLANO         CLOUDY    70  63  78 CALM      29.96R
BURNET         CLOUDY    68  64  87 S7        29.95R FOG
*HORSESHOE BAY   N/A     70  65  85 S5        29.94R HAZE
*KERRVILLE     CLOUDY    66  64  94 S5        29.96R FOG
*FREDERICKSBRG CLOUDY    66  62  86 S5        29.95R
*ROCKSPRINGS   FOG       64  64 100 SW12      29.98R VSB<1/4
*BOERNE STAGE  CLOUDY    66  64  94 S7        29.96R
*CASTROVILLE   CLOUDY    69  68  95 CALM      29.95S FOG
HONDO          CLOUDY    70  68  93 SE5       29.94R FOG
*UVALDE        CLOUDY    67  66  97 CALM      29.95R FOG
DEL RIO        CLOUDY    68  66  93 E13       29.91R FOG
LAUGHLIN AFB   CLOUDY    68  68 100 SE13      29.92R FOG
CARRIZO SPRGS  CLOUDY    70  68  94 SE6       29.91R FOG
*EAGLE PASS    FOG       68  66  94 MISG      29.93R VSB 1/2
$$

TXZ173-191>194-202-209-217>225-228-281500-
CENTRAL AND SOUTH CENTRAL TEXAS

CITY           SKY/WX    TMP DP  RH WIND       PRES   REMARKS
GEORGETOWN     CLOUDY    72  64  78 S12       29.92R FOG
AUSTIN/BERGSTM CLOUDY    72  69  90 SE10G18   29.93R FOG
AUSTIN/MABRY   CLOUDY    72  68  87 S6        29.94S FOG
*AUSTIN/EXEC   CLOUDY    72  72 100 S9        29.94R
*LAGO VISTA    CLOUDY    70  67  92 S9        29.95R FOG
SAN MARCOS     CLOUDY    70  68  94 S8        29.95R FOG
NEW BRAUNFELS  CLOUDY    72  68  87 S8        29.92S FOG
RANDOLPH AFB   PTSUNNY   70  70 100 S6        29.93S FOG
PT SAN ANTONIO CLOUDY    70  69  95 SE6       29.92R FOG
SAN ANTONIO    CLOUDY    71  68  90 S8        29.94S FOG
STINSON FIELD  FOG       71  68  90 CALM      29.92R VSB 1
*PLEASANTON    CLOUDY    71  69  92 SE3       29.93R FOG
*LA GRANGE     PTSUNNY   74  71  91 S9        29.93S FOG
*GIDDINGS      PTSUNNY   72  68  88 S9        29.95S FOG
*GONZALES      PTSUNNY   73  71  93 S10G16    29.94R
$$

TXZ163>164-176>182-195>201-210>213-226-227-235-281500-
SOUTHEAST TEXAS

CITY           SKY/WX    TMP DP  RH WIND       PRES   REMARKS
COLLEGE STN    CLOUDY    73  70  90 S14       29.96R FOG
*BRYAN         CLOUDY    72  71  96 S13G20    29.97R
*CALDWELL      NOT AVBL
*CROCKETT      PTSUNNY   72  68  88 SE7       30.00R FOG
*BRENHAM       CLOUDY    74  71  91 S9        29.97R FOG
HUNTSVILLE     PTSUNNY   74  68  81 S12G21    29.97S HAZE
CONROE         CLOUDY    72  68  87 S12       29.99R
HOUSTON BUSH   PTSUNNY   73  68  84 S10       30.00R
HOUSTON HOBBY  PTSUNNY   72  69  90 S9        30.00R
*HOUSTON SW AP CLOUDY    71  69  94 SE6       30.01R
PEARLAND       CLOUDY    74  69  85 SE10      30.02R
HOUSTON HOOKS  MOSUNNY   73  69  87 S9        29.99R
ELLINGTON FLD  PTSUNNY   72  70  94 SE10      30.00S FOG
SUGAR LAND     CLOUDY    72  70  93 S8        29.99R
*HOUSTON EXEC  PTSUNNY   72  70  94 S10       30.00R FOG
*CLEVELAND MUN CLOUDY    72  69  90 S8        30.02R FOG
*WHARTON       CLOUDY    72  68  89 SE10      29.99R FOG
*COLUMBUS      CLOUDY    72  69  93 S6        29.99R FOG
*EAGLE LAKE    CLOUDY    74  73  95 S8        29.98R FOG
$$

TXZ214>216-236>238-281500-
THE UPPER TEXAS COAST

CITY           SKY/WX    TMP DP  RH WIND       PRES   REMARKS
*ORANGE        CLOUDY    71  69  94 S9        30.07R
PORT ARTHUR    CLOUDY    72  68  87 SE13      30.04R
GALVESTON      SUNNY     70  70 100 SE14      30.02R FOG
ANGLETON       CLOUDY    73  70  90 S15       30.01R
*BAY CITY      CLOUDY    72  72  99 SE9       30.00R FOG
PALACIOS       CLOUDY    71  70  96 SE14      29.98R FOG
$$

TXZ229>234-239>247-281500-
TEXAS COASTAL BEND AND RIO GRANDE PLAINS

CITY           SKY/WX    TMP DP  RH WIND       PRES   REMARKS
VICTORIA       CLOUDY    73  70  90 S15       29.97R FOG
*BEEVILLE      CLOUDY    72  72 100 S9        29.94R FOG
ROCKPORT       MOSUNNY   73  70  90 S14G23    29.95R FOG
*PORT ARANSAS  PTSUNNY   70  69  98 SE10      29.96R FOG
*PORT LAVACA     N/A     71  71 100 CALM      29.97R FOG
*INGLESIDE     MOSUNNY   73  72  95 SE13G23   29.94R FOG
CORPUS CHRISTI CLOUDY    73  71  93 SE22      29.93R FOG
CORPUS NAS     PTSUNNY   71  71 100 SE15      29.95R FOG
*ROBSTOWN      MOSUNNY   73  73 100 SE15      29.93R FOG
ALICE          CLOUDY    71  69  93 SE6       29.91S FOG
KINGSVILLE NAS CLOUDY    73  72  96 SE16G25   29.91R FOG
COTULLA        CLOUDY    73  68  84 SE5       29.92R HAZE
*FAITH RANCH   CLOUDY    72  68  88 S3        29.92R
LAREDO         CLOUDY    74  69  85 SE9       29.91R
$$

TXZ248>255-281500-
DEEP SOUTH TEXAS

CITY           SKY/WX    TMP DP  RH WIND       PRES   REMARKS
BROWNSVILLE    MOSUNNY   73  72  94 SE13      29.95R
PORT ISABEL    SUNNY     74  72  93 SE14      29.94R FOG
*SOUTH PADRE   NOT AVBL
HARLINGEN      PTSUNNY   73  73 100 SE17      29.92R FOG
*HEBBRONVILLE  CLOUDY    72  67  83 S10       29.93R HAZE
MCALLEN        MOSUNNY   75  70  84 SE17G25   29.90S HAZE
*WESLACO       CLOUDY    73  70  93 S12G17    29.91R FOG
FALFURRIAS     PTSUNNY   73  70  90 SE12G17   29.90R
EDINBURG       PTSUNNY   75  71  87 SE14G21   29.90S FOG
*ZAPATA        CLOUDY    73  67  83 SE5       29.91R HAZE
$$

TXZ213>215-236>238-242>244-246-247-251-254-255-281500-
CMAN STATIONS

STATION/POSITION TIME  TEMP    WIND        PRES    WAVE
                       AIR SEA DIR/SP/G            HT/PER
                 (UTC) (F)     (DEG/KT/KT) (MB)    (FT/S)
SABINE PASS      1324   68 69  140/  9/ 11 1018.5
SEA RIM ST PARK  1300   68     140/  9/ 11 1017.1
NORTH JETTY/GLS  1324   72 67  140/ 12/ 13   N/A
EAGLE POINT      1324   69 68  160/  8/  9 1016.4
MORGANS POINT    1324   69 68  130/  8/ 11 1016.2
MISSION/ARANSAS  1300   72                 1014.0
PORT O`CONNOR    1324   69     130/ 12/ 14 1014.3
PORT ARANSAS     1300   69 68  140/ 11/ 13 1013.8
MALAQUITE BEACH  1324   69 70  130/  9/ 10 1014.5
BAFFIN BAY       1324   71 72  120/ 12/ 15 1013.9
PORT ISABEL      1324   73 72  150/ 10/ 13 1013.9
$$

GMZ080-GMZ150>470-281500-
OFFSHORE BUOY REPORTS

STATION/POSITION TIME  TEMP    WIND        PRES    WAVE
                       AIR SEA DIR/SP/G            HT/PER
                 (UTC) (F)     (DEG/KT/KT) (MB)    (FT/S)
20 E GALVESTON   1250   68 67  150/ 14/ 16 1015.7    3/ 7
90 E PT ARANSAS  1250   72 69  130/ 12/ 14 1014.8    5/ 8
35 NE PT MANSFLD 1250   74     160/ 14/ 17 1013.3    5/ 8
200 E PT ISABEL  1250   75 75  140/ 16/ 19 1015.9    6/ 7
$$



USA.gov is the U.S. government's official web portal to all federal, state and local government web resources and services.